Weather History for KOOA - December, 2013

Change the Weather History Date:

Tuesday, December 31, 2013

  Actual Average (KOTM) Record (KOTM)
Temperature  
Mean Temperature 8 °F 23 °F  
Max Temperature 17 °F 32 °F 63 °F (1965)
Min Temperature 0 °F 14 °F -13 °F (1968)
Degree Days  
Heating Degree Days 56 42  
Month to date heating degree days 1208  
Since 1 July heating degree days 2505  
Cooling Degree Days 0 0  
Month to date cooling degree days 0  
Year to date cooling degree days 938  
Moisture  
Dew Point 5 °F    
Average Humidity 82    
Maximum Humidity 89    
Minimum Humidity 74    
Precipitation  
Precipitation 0.00 in 0.03 in 0.99 in (1931)
Month to date precipitation 1.37  
Year to date precipitation 37.07  
Sea Level Pressure  
Sea Level Pressure 30.24 in    
Wind  
Wind Speed 6 mph (NE)    
Max Wind Speed 17 mph    
Max Gust Speed 21 mph    
Visibility 9 miles    
Events Snow    
T = Trace of Precipitation, MM = Missing Value Source: NWS Daily Summary

Daily Weather History Graph

Daily Weather History Graph

Search for Another Location

Airport or City:

Trip Planner

Search our weather history database for the weather conditions in past years. The results will help you decide how hot, cold, wet, or windy it might be!

Date:

Astronomy

Dec. 31, 2013 Rise Set
Actual Time 7:35 AM CST 4:50 PM CST
Civil Twilight 7:04 AM CST 5:22 PM CST
Nautical Twilight 6:29 AM CST 5:56 PM CST
Astronomical Twilight 5:56 AM CST 6:30 PM CST
Moon 6:28 AM CST (12/31) 4:28 PM CST (12/31)
Length of Visible Light 10h 17m
Length of Day
9h 15m
Waning Crescent, 1% of the Moon is Illuminated
Dec 31
Waning Crescent
Jan 1
New
Jan 7
First Quarter
Jan 15
Full
Jan 23
Last Quarter

Hourly Weather History & Observations

Time (CST) Temp. Windchill Dew Point Humidity Pressure Visibility Wind Dir Wind Speed Gust Speed Precip Events Conditions
12:15 AM 3.0 °F -8.0 °F -0.8 °F 84% 30.22 in 10.0 mi NW 5.8 mph - N/A   Clear
12:35 AM 4.8 °F - 2.1 °F 89% 30.22 in 10.0 mi Calm Calm - N/A   Clear
12:55 AM 3.6 °F - -0.2 °F 84% 30.24 in 10.0 mi Calm Calm - N/A   Clear
1:15 AM 3.0 °F -10.5 °F -0.6 °F 85% 30.23 in 10.0 mi NW 8.1 mph - N/A   Clear
1:35 AM 5.7 °F -8.2 °F 2.3 °F 86% 30.23 in 10.0 mi WNW 9.2 mph - N/A   Clear
1:55 AM 3.2 °F -7.8 °F -0.6 °F 84% 30.24 in 10.0 mi West 5.8 mph - N/A   Clear
2:15 AM 3.7 °F -7.1 °F 0.1 °F 85% 30.24 in 10.0 mi West 5.8 mph - N/A   Clear
2:35 AM 2.3 °F -7.2 °F -1.3 °F 85% 30.23 in 10.0 mi NW 4.6 mph - N/A   Clear
2:55 AM 1.9 °F - -1.8 °F 84% 30.24 in 10.0 mi Calm Calm - N/A   Clear
3:15 AM 2.5 °F - -1.1 °F 85% 30.25 in 10.0 mi Calm Calm - N/A   Clear
3:35 AM 0.7 °F -10.7 °F -2.9 °F 85% 30.25 in 10.0 mi West 5.8 mph - N/A   Clear
3:55 AM 3.0 °F -6.4 °F -0.8 °F 84% 30.25 in 10.0 mi West 4.6 mph - N/A   Clear
4:15 AM 3.2 °F - -0.6 °F 84% 30.25 in 10.0 mi Calm Calm - N/A   Clear
4:35 AM 0.7 °F -9.1 °F -3.5 °F 83% 30.25 in 10.0 mi WNW 4.6 mph - N/A   Clear
4:55 AM 0.1 °F - -4.0 °F 83% 30.26 in 10.0 mi Calm Calm - N/A   Clear
5:15 AM 2.1 °F -9.0 °F -1.5 °F 85% 30.27 in 10.0 mi NW 5.8 mph - N/A   Clear
5:35 AM 6.4 °F -3.9 °F 3.2 °F 87% 30.29 in 10.0 mi NW 5.8 mph - N/A   Mostly Cloudy
5:55 AM 8.1 °F -4.3 °F 4.8 °F 87% 30.30 in 10.0 mi NW 8.1 mph - N/A   Overcast
6:15 AM 6.8 °F -2.0 °F 3.4 °F 86% 30.29 in 10.0 mi NW 4.6 mph - N/A   Overcast
6:35 AM 6.8 °F -4.8 °F 3.4 °F 86% 30.31 in 10.0 mi WNW 6.9 mph - N/A   Overcast
6:55 AM 7.5 °F -2.6 °F 4.1 °F 86% 30.32 in 10.0 mi WNW 5.8 mph - N/A   Overcast
7:15 AM 7.5 °F -3.9 °F 4.1 °F 86% 30.31 in 10.0 mi WNW 6.9 mph - N/A   Overcast
7:35 AM 7.7 °F - 4.5 °F 87% 30.31 in 10.0 mi Calm Calm - N/A Snow Light Snow
7:55 AM 7.7 °F - 4.6 °F 87% 30.31 in 10.0 mi Calm Calm - N/A   Overcast
8:15 AM 8.4 °F - 5.2 °F 87% 30.30 in 5.0 mi Calm Calm - N/A Snow Light Snow
8:35 AM 8.6 °F - 5.5 °F 87% 30.30 in 10.0 mi Calm Calm - N/A   Overcast
8:55 AM 9.0 °F - 5.7 °F 87% 30.30 in 10.0 mi Calm Calm - N/A   Overcast
9:15 AM 9.1 °F - 5.9 °F 87% 30.31 in 10.0 mi Calm Calm - N/A   Overcast
9:35 AM 9.5 °F - 6.3 °F 87% 30.31 in 7.0 mi Calm Calm - N/A   Overcast
9:55 AM 9.5 °F - 6.4 °F 87% 30.32 in 5.0 mi Calm Calm - N/A   Overcast
10:15 AM 10.2 °F - 6.8 °F 86% 30.31 in 2.5 mi Calm Calm - N/A Snow Light Snow
10:35 AM 10.4 °F - 6.8 °F 85% 30.30 in 2.5 mi Calm Calm - N/A Snow Light Snow
10:55 AM 10.9 °F - 6.8 °F 83% 30.28 in 5.0 mi Calm Calm - N/A   Mostly Cloudy
11:15 AM 11.5 °F - 6.8 °F 81% 30.27 in 5.0 mi Calm Calm - N/A Snow Light Snow
11:35 AM 12.2 °F - 7.3 °F 81% 30.26 in 7.0 mi Calm Calm - N/A Snow Light Snow
11:55 AM 13.8 °F - 8.4 °F 79% 30.25 in 10.0 mi Calm Calm - N/A   Overcast
12:15 PM 14.0 °F 3.9 °F 8.2 °F 78% 30.24 in 7.0 mi East 6.9 mph - N/A Snow Light Snow
12:35 PM 14.2 °F 3.1 °F 8.4 °F 78% 30.21 in 10.0 mi East 8.1 mph - N/A   Scattered Clouds
12:55 PM 15.4 °F 5.6 °F 9.0 °F 76% 30.22 in 10.0 mi ESE 6.9 mph - N/A   Mostly Cloudy
1:15 PM 15.8 °F 4.2 °F 9.1 °F 75% 30.20 in 10.0 mi ESE 9.2 mph - N/A   Clear
1:35 PM 16.3 °F 4.9 °F 9.3 °F 74% 30.19 in 10.0 mi East 9.2 mph - N/A   Clear
1:55 PM 16.7 °F 3.8 °F 9.7 °F 74% 30.19 in 10.0 mi East 11.5 mph - N/A   Clear
2:15 PM 17.2 °F 5.2 °F 10.8 °F 76% 30.17 in 10.0 mi ENE 10.4 mph - N/A   Clear
2:35 PM 16.3 °F 2.1 °F 10.4 °F 77% 30.15 in 10.0 mi ENE 13.8 mph - N/A   Clear
2:55 PM 15.8 °F 0.9 °F 10.0 °F 78% 30.17 in 10.0 mi ENE 15.0 mph - N/A   Mostly Cloudy
3:15 PM 14.7 °F -1.6 °F 9.1 °F 79% 30.15 in 10.0 mi ENE 17.3 mph - N/A   Mostly Cloudy
3:35 PM 14.2 °F -2.3 °F 8.6 °F 78% 30.15 in 10.0 mi ENE 17.3 mph - N/A   Scattered Clouds
3:55 PM 13.1 °F -3.1 °F 7.9 °F 80% 30.16 in 10.0 mi ENE 16.1 mph - N/A   Clear
4:15 PM 12.7 °F -4.1 °F 7.7 °F 80% 30.17 in 10.0 mi ENE 17.3 mph - N/A   Clear
4:35 PM 12.2 °F -4.3 °F 7.5 °F 82% 30.18 in 10.0 mi ENE 16.1 mph - N/A   Clear
4:55 PM 11.8 °F -4.8 °F 6.6 °F 80% 30.19 in 10.0 mi NE 16.1 mph - N/A   Clear
5:15 PM 11.3 °F -5.5 °F 5.9 °F 79% 30.20 in 10.0 mi NE 16.1 mph 19.6 mph N/A   Clear
5:35 PM 11.1 °F -4.5 °F 5.4 °F 78% 30.21 in 10.0 mi NE 13.8 mph 20.7 mph N/A   Clear
5:55 PM 10.8 °F -5.0 °F 5.0 °F 78% 30.20 in 10.0 mi ENE 13.8 mph 19.6 mph N/A   Clear
6:15 PM 10.9 °F -5.4 °F 5.2 °F 78% 30.21 in 10.0 mi NE 15.0 mph 18.4 mph N/A   Clear
6:35 PM 11.1 °F -5.1 °F 5.5 °F 78% 30.21 in 10.0 mi NE 15.0 mph - N/A   Clear
6:55 PM 11.1 °F -5.1 °F 5.2 °F 77% 30.22 in 10.0 mi ENE 15.0 mph - N/A   Clear
7:15 PM 11.1 °F -5.7 °F 5.4 °F 78% 30.21 in 10.0 mi ENE 16.1 mph - N/A   Clear
7:35 PM 10.9 °F -4.1 °F 5.2 °F 78% 30.22 in 10.0 mi ENE 12.7 mph 18.4 mph N/A   Clear
7:55 PM 10.8 °F -5.6 °F 5.0 °F 78% 30.21 in 10.0 mi ENE 15.0 mph - N/A   Clear
8:15 PM 10.4 °F -5.4 °F 4.8 °F 78% 30.21 in 10.0 mi ENE 13.8 mph - N/A   Clear
8:35 PM 10.4 °F -4.8 °F 5.0 °F 79% 30.21 in 10.0 mi ENE 12.7 mph - N/A   Clear
8:55 PM 10.4 °F -4.1 °F 5.0 °F 79% 30.21 in 10.0 mi ENE 11.5 mph - N/A   Clear
9:15 PM 10.8 °F -3.6 °F 5.4 °F 79% 30.21 in 10.0 mi ENE 11.5 mph - N/A   Clear
9:35 PM 10.9 °F -4.1 °F 5.5 °F 79% 30.22 in 10.0 mi NE 12.7 mph - N/A   Clear
9:55 PM 11.1 °F -3.2 °F 5.7 °F 79% 30.21 in 10.0 mi ENE 11.5 mph - N/A   Clear
10:15 PM 11.3 °F -1.3 °F 5.7 °F 78% 30.21 in 10.0 mi ENE 9.2 mph - N/A   Clear
10:35 PM 11.3 °F -3.6 °F 5.9 °F 79% 30.22 in 10.0 mi ENE 12.7 mph - N/A   Clear
10:55 PM 11.1 °F -3.9 °F 5.9 °F 80% 30.22 in 10.0 mi NE 12.7 mph - N/A   Clear
11:15 PM 10.9 °F -1.8 °F 5.7 °F 79% 30.21 in 10.0 mi ENE 9.2 mph - N/A   Clear
11:35 PM 10.9 °F -3.4 °F 5.9 °F 80% 30.20 in 10.0 mi ENE 11.5 mph - N/A   Clear
11:55 PM 10.9 °F -2.6 °F 5.9 °F 80% 30.20 in 10.0 mi ENE 10.4 mph - N/A   Clear